FW5225 Weather Reports


time (UTC)temp
F
wind
direction
speed
knots
gust
knots
rain 1hr
in
rain 24hr
in
rain mn
in
humidity
%
barometer
mb
20260904141513 84 110 0.9 1.7 0.00 0.00 0.00 53 1008.8
20260904141006 84 84 0.0 2.6 0.00 0.00 0.00 53 1008.8
20260904140505 84 91 0.9 2.6 0.00 0.00 0.00 54 1008.7
20260904140004 83 69 0.0 1.7 0.00 0.00 0.00 53 1008.6
20260904135503 83 40 0.0 2.6 0.00 0.00 0.00 54 1008.6
20260904135001 83 69 0.9 2.6 0.00 0.00 0.00 54 1008.5
20260904134602 83 83 0.0 2.6 0.00 0.00 0.00 53 1008.3
20260904134058 83 46 0.9 3.5 0.00 0.00 0.00 53 1008.3
20260904133559 82 54 1.7 3.5 0.00 0.00 0.00 53 1008.2
20260904133055 82 58 0.9 2.6 0.00 0.00 0.00 52 1008.2
20260904132554 82 38 0.0 3.5 0.00 0.00 0.00 52 1008.1
20260904132053 82 55 0.9 5.2 0.00 0.00 0.00 51 1008.0
20260904131601 82 56 2.6 5.2 0.00 0.00 0.00 51 1007.9
20260904131052 82 49 2.6 6.1 0.00 0.00 0.00 51 1007.8
20260904130549 82 35 2.6 6.1 0.00 0.00 0.00 51 1007.8
20260904130049 82 23 2.6 6.1 0.00 0.00 0.00 51 1007.7
20260904125549 81 47 0.9 2.6 0.00 0.00 0.00 52 1007.7
20260904125048 81 50 0.0 2.6 0.00 0.00 0.00 52 1007.6
20260904124548 81 39 1.7 2.6 0.00 0.00 0.00 52 1007.5
20260904124048 81 47 0.0 1.7 0.00 0.00 0.00 52 1007.5
20260904123546 81 44 0.0 1.7 0.00 0.00 0.00 52 1007.4
20260904123046 81 44 0.0 2.6 0.00 0.00 0.00 53 1007.3
20260904122544 81 24 0.0 1.7 0.00 0.00 0.00 53 1007.2
20260904122044 82 79 0.0 1.7 0.00 0.00 0.00 53 1007.2
20260904121543 82 96 0.0 1.7 0.00 0.00 0.00 53 1007.3
20260904121043 82 259 0.0 0.0 0.00 0.00 0.00 53 1007.1
20260904120542 82 259 0.0 0.0 0.00 0.00 0.00 52 1007.1
20260904120040 83 259 0.0 0.0 0.00 0.00 0.00 52 1007.1
20260904115539 83 259 0.0 0.0 0.00 0.00 0.00 52 1007.1
20260904115038 83 259 0.0 0.0 0.00 0.00 0.00 53 1007.0
20260904114538 83 259 0.0 0.0 0.00 0.00 0.00 51 1007.1
20260904114037 83 259 0.0 1.7 0.00 0.00 0.00 51 1007.0
20260904113540 83 259 0.0 1.7 0.00 0.00 0.00 51 1007.0
20260904113043 83 259 0.0 0.9 0.00 0.00 0.00 50 1007.0
20260904112536 83 259 0.0 0.0 0.00 0.00 0.00 50 1007.0
20260904112035 84 259 0.0 1.7 0.00 0.00 0.00 49 1007.0
20260904111538 84 259 0.0 1.7 0.00 0.00 0.00 50 1006.9
20260904111035 84 222 0.0 0.0 0.00 0.00 0.00 49 1006.9
20260904110534 84 222 0.0 0.0 0.00 0.00 0.00 49 1006.9
20260904110033 84 222 0.0 0.0 0.00 0.00 0.00 48 1007.0
20260904105534 84 222 0.0 1.7 0.00 0.00 0.00 48 1006.9
20260904105033 84 222 0.0 1.7 0.00 0.00 0.00 48 1007.0
20260904104531 85 254 0.0 0.9 0.00 0.00 0.00 48 1006.9
20260904104031 85 254 0.0 1.7 0.00 0.00 0.00 48 1006.8
20260904103529 85 178 0.0 1.7 0.00 0.00 0.00 46 1006.8
20260904103029 85 169 0.0 1.7 0.00 0.00 0.00 46 1006.7
20260904102528 85 219 0.0 1.7 0.00 0.00 0.00 47 1006.7
20260904102027 86 219 0.0 1.7 0.00 0.00 0.00 46 1006.6
20260904101526 86 246 0.0 1.7 0.00 0.00 0.00 46 1006.6
20260904101031 86 244 0.0 2.6 0.00 0.00 0.00 46 1006.5
20260904100529 86 242 0.9 2.6 0.00 0.00 0.00 46 1006.5
20260904100029 86 225 0.0 2.6 0.00 0.00 0.00 45 1006.5
20260904095527 86 248 0.0 2.6 0.00 0.00 0.00 45 1006.5
20260904095027 86 279 0.0 2.6 0.00 0.00 0.00 45 1006.5
20260904094533 86 219 0.9 2.6 0.00 0.00 0.00 44 1006.5
20260904094024 86 256 0.9 2.6 0.00 0.00 0.00 44 1006.5
20260904093524 86 235 0.0 5.2 0.00 0.00 0.00 44 1006.5
20260904093023 86 286 0.9 5.2 0.00 0.00 0.00 44 1006.5
20260904092528 86 278 0.9 2.6 0.00 0.00 0.00 44 1006.5
20260904092022 86 259 0.9 2.6 0.00 0.00 0.00 43 1006.5
20260904091522 87 249 0.0 2.6 0.00 0.00 0.00 44 1006.5
20260904091024 87 237 0.0 2.6 0.00 0.00 0.00 43 1006.5
20260904090521 87 240 0.9 2.6 0.00 0.00 0.00 43 1006.5
20260904090021 87 246 0.0 1.7 0.00 0.00 0.00 43 1006.5
20260904085520 87 278 0.0 1.7 0.00 0.00 0.00 43 1006.5
20260904085022 87 227 0.0 5.2 0.00 0.00 0.00 42 1006.5
20260904084520 87 236 0.9 5.2 0.00 0.00 0.00 42 1006.5
20260904084018 87 244 0.0 4.3 0.00 0.00 0.00 42 1006.5
20260904083519 87 273 0.9 4.3 0.00 0.00 0.00 41 1006.5
20260904083034 88 260 0.9 3.5 0.00 0.00 0.00 41 1006.6
20260904082517 88 255 1.7 4.3 0.00 0.00 0.00 41 1006.6
20260904082017 88 267 0.9 4.3 0.00 0.00 0.00 41 1006.6
20260904081516 88 304 0.0 5.2 0.00 0.00 0.00 41 1006.6
20260904081016 88 257 0.0 5.2 0.00 0.00 0.00 42 1006.6
20260904080516 88 218 0.9 4.3 0.00 0.00 0.00 41 1006.5
20260904080018 88 276 0.9 5.2 0.00 0.00 0.00 42 1006.6
20260904075514 88 250 0.9 5.2 0.00 0.00 0.00 42 1006.6
20260904075014 88 171 1.7 5.2 0.00 0.00 0.00 41 1006.6
20260904074517 88 300 0.9 3.5 0.00 0.00 0.00 41 1006.6
20260904074015 88 250 0.9 4.3 0.00 0.00 0.00 41 1006.6
20260904073514 89 278 1.7 4.3 0.00 0.00 0.00 41 1006.5
20260904073014 89 255 0.0 5.2 0.00 0.00 0.00 41 1006.6
20260904072512 89 260 1.7 4.3 0.00 0.00 0.00 41 1006.6
20260904072015 89 296 1.7 4.3 0.00 0.00 0.00 41 1006.5
20260904071511 89 205 0.9 5.2 0.00 0.00 0.00 41 1006.5
20260904071010 89 294 0.0 5.2 0.00 0.00 0.00 41 1006.5
20260904070513 89 269 0.9 6.1 0.00 0.00 0.00 41 1006.4
20260904070009 89 261 1.7 6.1 0.00 0.00 0.00 41 1006.4
20260904065509 89 240 0.9 4.3 0.00 0.00 0.00 41 1006.4
20260904065009 89 244 1.7 4.3 0.00 0.00 0.00 41 1006.4
20260904064509 90 268 0.0 4.3 0.00 0.00 0.00 42 1006.2
20260904064011 90 274 0.9 3.5 0.00 0.00 0.00 42 1006.2
20260904063508 90 243 0.9 7.0 0.00 0.00 0.00 41 1006.2
20260904063008 90 248 0.9 5.2 0.00 0.00 0.00 41 1006.2
20260904062507 90 276 1.7 7.8 0.00 0.00 0.00 41 1006.1
20260904062007 90 246 2.6 7.8 0.00 0.00 0.00 41 1006.2
20260904061507 90 182 1.7 7.0 0.00 0.00 0.00 41 1006.2
20260904061007 91 238 2.6 7.0 0.00 0.00 0.00 41 1006.2
20260904060509 91 193 0.9 4.3 0.00 0.00 0.00 41 1006.1
20260904060014 91 244 1.7 6.1 0.00 0.00 0.00 41 1006.1
20260904055507 91 191 1.7 7.0 0.00 0.00 0.00 41 1006.0
20260904055007 91 267 0.9 7.8 0.00 0.00 0.00 41 1005.9
20260904054510 91 216 1.7 5.2 0.00 0.00 0.00 41 1005.9
20260904054009 91 266 0.9 5.2 0.00 0.00 0.00 40 1005.9
20260904053510 92 283 0.9 5.2 0.00 0.00 0.00 40 1005.9
20260904053013 92 277 2.6 7.8 0.00 0.00 0.00 40 1005.9
20260904052507 92 201 1.7 7.8 0.00 0.00 0.00 39 1005.8
20260904052009 92 244 2.6 7.8 0.00 0.00 0.00 39 1005.8
20260904051511 92 259 2.6 7.0 0.00 0.00 0.00 39 1005.8
20260904051005 92 223 2.6 5.2 0.00 0.00 0.00 39 1005.8
20260904050504 92 267 0.9 3.5 0.00 0.00 0.00 39 1005.8
20260904050017 92 281 1.7 6.1 0.00 0.00 0.00 39 1005.8
20260904045505 92 271 2.6 6.1 0.00 0.00 0.00 38 1005.8
20260904045005 93 247 1.7 6.1 0.00 0.00 0.00 38 1005.8
20260904044512 93 215 0.9 5.2 0.00 0.00 0.00 38 1005.7
20260904044003 93 300 0.9 5.2 0.00 0.00 0.00 39 1005.8
20260904043503 93 267 1.7 6.1 0.00 0.00 0.00 38 1005.7
20260904043009 93 279 1.7 6.1 0.00 0.00 0.00 38 1005.7
20260904042503 93 205 0.9 5.2 0.00 0.00 0.00 39 1005.6
20260904042002 93 242 1.7 5.2 0.00 0.00 0.00 39 1005.6
20260904041505 93 234 1.7 4.3 0.00 0.00 0.00 39 1005.6
20260904041003 93 219 0.9 9.6 0.00 0.00 0.00 39 1005.5
20260904040504 94 223 1.7 9.6 0.00 0.00 0.00 39 1005.5
20260904040007 94 247 2.6 11.3 0.00 0.00 0.00 39 1005.4
20260904035503 94 252 3.5 11.3 0.00 0.00 0.00 39 1005.3
20260904035003 94 188 1.7 7.8 0.00 0.00 0.00 38 1005.2
20260904034503 94 230 1.7 6.1 0.00 0.00 0.00 38 1005.2
20260904034002 94 261 0.9 6.1 0.00 0.00 0.00 38 1005.1
20260904033505 94 238 0.9 6.1 0.00 0.00 0.00 38 1005.1
20260904033010 94 173 1.7 6.1 0.00 0.00 0.00 37 1005.0
20260904032502 94 218 1.7 7.8 0.00 0.00 0.00 37 1004.9
20260904032001 94 252 0.9 8.7 0.00 0.00 0.00 37 1004.9
20260904031501 94 273 2.6 8.7 0.00 0.00 0.00 37 1004.8
20260904031001 95 248 1.7 7.0 0.00 0.00 0.00 36 1004.7
20260904030503 95 298 0.9 7.0 0.00 0.00 0.00 36 1004.6
20260904030001 95 254 1.7 6.1 0.00 0.00 0.00 35 1004.6
20260904025501 95 259 1.7 5.2 0.00 0.00 0.00 35 1004.6
20260904025002 95 267 2.6 5.2 0.00 0.00 0.00 34 1004.5
20260904024501 95 247 1.7 5.2 0.00 0.00 0.00 34 1004.5
20260904024000 95 219 0.9 4.3 0.00 0.00 0.00 34 1004.4
20260904023501 95 225 0.9 5.2 0.00 0.00 0.00 34 1004.3
20260904023106 95 267 1.7 5.2 0.00 0.00 0.00 34 1004.4
20260904022600 95 277 2.6 6.1 0.00 0.00 0.00 34 1004.3
20260904022100 96 277 2.6 6.1 0.00 0.00 0.00 34 1004.3
20260904021604 96 272 0.9 5.2 0.00 0.00 0.00 33 1004.2
20260904021059 96 194 1.7 5.2 0.00 0.00 0.00 33 1004.2
20260904020600 96 175 1.7 5.2 0.00 0.00 0.00 32 1004.1
20260904020104 96 247 1.7 5.2 0.00 0.00 0.00 33 1004.1
20260904015559 96 262 1.7 8.7 0.00 0.00 0.00 32 1004.1
20260904015058 97 265 2.6 8.7 0.00 0.00 0.00 32 1004.1
20260904014619 97 288 2.6 7.0 0.00 0.00 0.00 32 1004.1
20260904014101 97 243 1.7 9.6 0.00 0.00 0.00 31 1004.0
20260904013558 97 214 2.6 9.6 0.00 0.00 0.00 30 1004.0
20260904013119 97 250 2.6 7.8 0.00 0.00 0.00 30 1004.0
20260904012557 98 205 2.6 9.6 0.00 0.00 0.00 29 1004.0
20260904012057 98 263 3.5 9.6 0.00 0.00 0.00 30 1004.0
20260904011558 98 210 1.7 7.8 0.00 0.00 0.00 30 1004.0
20260904011057 99 269 2.6 7.8 0.00 0.00 0.00 28 1004.0
20260904010557 99 261 2.6 5.2 0.00 0.00 0.00 28 1004.0
20260904010113 99 219 1.7 7.0 0.00 0.00 0.00 27 1004.0
20260904010027 99 288 0.9 7.0 0.00 0.00 0.00 27 1004.0
20260904005556 99 216 2.6 7.0 0.00 0.00 0.00 27 1004.0
20260904005058 100 220 1.7 7.0 0.00 0.00 0.00 26 1004.1
20260904004556 99 254 1.7 6.1 0.00 0.00 0.00 26 1004.0
20260904004055 99 249 2.6 6.1 0.00 0.00 0.00 26 1004.0
20260904003556 100 216 2.6 6.1 0.00 0.00 0.00 26 1004.0
20260904003110 100 211 1.7 6.1 0.00 0.00 0.00 26 1004.0
20260904002555 100 223 1.7 6.1 0.00 0.00 0.00 26 1004.0
20260904002055 100 304 2.6 6.1 0.00 0.00 0.00 26 1004.0
20260904001555 101 229 1.7 7.8 0.00 0.00 0.00 27 1004.0
20260904001055 101 300 5.2 7.8 0.00 0.00 0.00 27 1004.0
20260904000554 101 259 2.6 6.1 0.00 0.00 0.00 27 1004.1
20260904000054 101 269 2.6 6.1 0.00 0.00 0.00 26 1004.2
20260903235553 100 196 2.6 6.1 0.00 0.00 0.00 27 1004.1
20260903235053 100 224 2.6 7.8 0.00 0.00 0.00 27 1004.2
20260903234553 100 257 1.7 7.8 0.00 0.00 0.00 27 1004.2
20260903234054 101 179 1.7 7.8 0.00 0.00 0.00 27 1004.2
20260903233551 101 269 2.6 7.0 0.00 0.00 0.00 27 1004.3
20260903233058 101 258 2.6 6.1 0.00 0.00 0.00 27 1004.3
20260903232550 102 217 1.7 7.0 0.00 0.00 0.00 27 1004.3
20260903232050 102 286 2.6 7.0 0.00 0.00 0.00 26 1004.4
20260903231550 103 253 1.7 7.0 0.00 0.00 0.00 26 1004.4
20260903231049 104 277 3.5 7.0 0.00 0.00 0.00 26 1004.5
20260903230549 104 231 0.9 6.1 0.00 0.00 0.00 26 1004.4
20260903230050 103 292 0.0 6.1 0.00 0.00 0.00 27 1004.6
20260903225548 103 202 0.0 6.1 0.00 0.00 0.00 27 1004.6
20260903225047 103 178 1.7 6.1 0.00 0.00 0.00 26 1004.6
20260903224546 103 123 0.9 7.8 0.00 0.00 0.00 27 1004.7
20260903224046 103 173 1.7 7.8 0.00 0.00 0.00 27 1004.8
20260903223545 103 119 1.7 7.0 0.00 0.00 0.00 27 1004.8
20260903223055 103 207 0.9 4.3 0.00 0.00 0.00 28 1004.8
20260903222544 102 178 1.7 4.3 0.00 0.00 0.00 27 1004.9
20260903222041 101 215 0.9 4.3 0.00 0.00 0.00 28 1005.0
20260903221542 100 315 0.0 6.1 0.00 0.00 0.00 30 1005.2
20260903221042 100 310 1.7 6.1 0.00 0.00 0.00 30 1005.2
20260903220540 100 303 1.7 5.2 0.00 0.00 0.00 30 1005.4
20260903220039 101 224 1.7 5.2 0.00 0.00 0.00 29 1005.4
20260903215542 101 190 0.9 5.2 0.00 0.00 0.00 29 1005.5
20260903215037 102 28 0.9 5.2 0.00 0.00 0.00 28 1005.7
20260903214541 102 277 1.7 4.3 0.00 0.00 0.00 28 1005.6
20260903214037 102 278 1.7 4.3 0.00 0.00 0.00 28 1005.8
20260903213536 102 80 0.9 7.0 0.00 0.00 0.00 28 1005.8
20260903213042 102 178 1.7 7.0 0.00 0.00 0.00 28 1005.9
20260903212534 102 180 0.9 5.2 0.00 0.00 0.00 28 1006.1
20260903212034 102 200 0.9 9.6 0.00 0.00 0.00 29 1006.1
20260903211539 102 224 2.6 9.6 0.00 0.00 0.00 28 1006.2
20260903211033 102 97 2.6 5.2 0.00 0.00 0.00 28 1006.2
20260903210532 102 209 1.7 5.2 0.00 0.00 0.00 29 1006.3
20260903210031 101 234 1.7 6.1 0.00 0.00 0.00 29 1006.4
20260903205532 100 192 1.7 8.7 0.00 0.00 0.00 30 1006.5
20260903205028 101 88 2.6 8.7 0.00 0.00 0.00 29 1006.6
20260903204528 100 135 0.9 7.8 0.00 0.00 0.00 30 1006.6
20260903204031 100 213 1.7 7.8 0.00 0.00 0.00 30 1006.7
20260903203527 100 143 1.7 5.2 0.00 0.00 0.00 31 1006.8
20260903203031 100 246 1.7 5.2 0.00 0.00 0.00 31 1006.8
20260903202525 100 115 0.9 5.2 0.00 0.00 0.00 30 1006.9
20260903202025 101 210 1.7 3.5 0.00 0.00 0.00 30 1007.1
20260903201525 101 199 0.0 7.0 0.00 0.00 0.00 30 1007.1
20260903201024 100 175 1.7 7.0 0.00 0.00 0.00 30 1007.2
20260903200523 100 207 0.9 3.5 0.00 0.00 0.00 31 1007.2
20260903200021 99 259 0.9 4.3 0.00 0.00 0.00 32 1007.3
20260903195521 99 174 1.7 5.2 0.00 0.00 0.00 32 1007.4
20260903195020 98 228 0.0 5.2 0.00 0.00 0.00 33 1007.5
20260903194519 99 119 1.7 3.5 0.00 0.00 0.00 31 1007.5
20260903194017 99 155 0.9 3.5 0.00 0.00 0.00 32 1007.6
20260903193516 98 148 0.0 7.0 0.00 0.00 0.00 34 1007.6
20260903193016 97 154 1.7 7.0 0.00 0.00 0.00 33 1007.7
20260903192514 97 136 1.7 8.7 0.00 0.00 0.00 33 1007.8
20260903192012 98 139 3.5 8.7 0.00 0.00 0.00 32 1007.9
20260903191523 98 192 1.7 7.0 0.00 0.00 0.00 33 1008.1
20260903191012 98 215 0.0 7.0 0.00 0.00 0.00 33 1008.1
20260903190511 98 157 2.6 6.1 0.00 0.00 0.00 32 1008.2
20260903190012 98 171 1.7 6.1 0.00 0.00 0.00 33 1008.3
20260903185509 97 120 0.9 4.3 0.00 0.00 0.00 33 1008.4
20260903185009 97 104 0.9 4.3 0.00 0.00 0.00 33 1008.5
20260903184509 97 205 0.0 5.2 0.00 0.00 0.00 35 1008.6
20260903184009 97 279 1.7 5.2 0.00 0.00 0.00 34 1008.6
20260903183507 97 221 0.9 8.7 0.00 0.00 0.00 35 1008.7
20260903183007 97 169 1.7 8.7 0.00 0.00 0.00 35 1008.8
20260903182505 97 158 1.7 5.2 0.00 0.00 0.00 34 1008.8
20260903182005 96 112 1.7 5.2 0.00 0.00 0.00 33 1008.9
20260903181503 96 85 0.9 4.3 0.00 0.00 0.00 34 1008.9
20260903181004 96 271 0.9 4.3 0.00 0.00 0.00 35 1009.0
20260903180501 96 186 0.9 5.2 0.00 0.00 0.00 37 1009.2
20260903180100 96 200 0.9 5.2 0.00 0.00 0.00 37 1009.2
20260903175558 96 201 1.7 4.3 0.00 0.00 0.00 38 1009.3
20260903175057 96 192 1.7 5.2 0.00 0.00 0.00 36 1009.4
20260903174556 95 169 0.9 5.2 0.00 0.00 0.00 38 1009.3
20260903174055 95 225 0.9 3.5 0.00 0.00 0.00 38 1009.4
20260903173553 94 218 0.9 2.6 0.00 0.00 0.00 39 1009.4
20260903173055 94 192 0.0 4.3 0.00 0.00 0.00 41 1009.5
20260903172551 94 274 0.9 4.3 0.00 0.00 0.00 41 1009.5
20260903172051 94 70 0.0 4.3 0.00 0.00 0.00 42 1009.5
20260903171559 94 172 0.9 4.3 0.00 0.00 0.00 42 1009.4
20260903171048 93 206 1.7 4.3 0.00 0.00 0.00 42 1009.4
20260903170548 93 280 0.9 4.3 0.00 0.00 0.00 44 1009.4
20260903170046 92 222 0.0 3.5 0.00 0.00 0.00 44 1009.4
20260903165545 92 159 0.9 4.3 0.00 0.00 0.00 44 1009.5
20260903165043 92 220 0.9 6.1 0.00 0.00 0.00 44 1009.6
20260903164542 92 159 1.7 6.1 0.00 0.00 0.00 45 1009.5
20260903164041 92 163 0.9 6.1 0.00 0.00 0.00 45 1009.5
20260903163539 91 189 0.9 6.1 0.00 0.00 0.00 46 1009.6
20260903163041 91 156 0.0 3.5 0.00 0.00 0.00 47 1009.6
20260903162538 91 248 0.9 4.3 0.00 0.00 0.00 48 1009.6
20260903162035 90 187 0.9 3.5 0.00 0.00 0.00 48 1009.6
20260903161535 90 204 1.7 3.5 0.00 0.00 0.00 49 1009.6
20260903161034 90 138 0.9 3.5 0.00 0.00 0.00 50 1009.6
20260903160532 90 164 0.0 3.5 0.00 0.00 0.00 50 1009.7
20260903160031 90 151 0.9 3.5 0.00 0.00 0.00 51 1009.7
20260903155531 89 184 0.0 3.5 0.00 0.00 0.00 51 1009.6
20260903155028 89 155 0.9 3.5 0.00 0.00 0.00 51 1009.6
20260903154527 89 186 0.9 3.5 0.00 0.00 0.00 51 1009.6
20260903154025 88 132 0.0 4.3 0.00 0.00 0.00 52 1009.6
20260903153524 88 112 0.9 3.5 0.00 0.00 0.00 53 1009.7
20260903153023 88 181 0.9 3.5 0.00 0.00 0.00 53 1009.7
20260903152522 87 260 0.0 2.6 0.00 0.00 0.00 54 1009.7
20260903152020 87 188 0.0 2.6 0.00 0.00 0.00 55 1009.7
20260903151521 87 181 0.0 2.6 0.00 0.00 0.00 56 1009.6
20260903151018 86 142 0.0 1.7 0.00 0.00 0.00 56 1009.7
20260903150516 86 279 0.0 1.7 0.00 0.00 0.00 57 1009.7
20260903150016 86 208 0.0 1.7 0.00 0.00 0.00 57 1009.7
20260903145514 85 178 0.0 1.7 0.00 0.00 0.00 58 1009.7
20260903145013 85 177 0.0 1.7 0.00 0.00 0.00 59 1009.7
20260903144512 84 169 0.0 1.7 0.00 0.00 0.00 59 1009.7
20260903144010 84 195 0.0 2.6 0.00 0.00 0.00 60 1009.7
20260903143508 84 242 0.0 2.6 0.00 0.00 0.00 60 1009.7
20260903143008 84 228 0.0 2.6 0.00 0.00 0.00 59 1009.6
20260903142507 84 200 0.0 3.5 0.00 0.00 0.00 59 1009.6
20260903142005 84 267 0.9 3.5 0.00 0.00 0.00 58 1009.6